Simultaneous Nadir Overpasses (SNOs) Predictions

Prediction of SNOs over PacNW region [( 10.00, 139.50) to ( 22.70, 165.60)] between AQUA and NPP Satellites:

Table of predicted SNOs over PacNW region for the next 30.0 days since TLE Epoch: 8/31/2018
Index Date (AQUA) Time (AQUA) AQUA Lat,Lon Date (NPP) Time (NPP) NPP Lat,Lon Distance(km) Time Diff (sec)
1 08/31/2018 15:10:31 22.58, 159.71 08/31/2018 15:11:21 23.11, 157.27 256.85 50
2 09/03/2018 03:32:18 22.65, 147.42 09/03/2018 03:28:49 26.91, 144.72 547.16 209
3 09/08/2018 15:59:48 22.62, 147.39 09/08/2018 16:02:08 23.23, 144.61 292.62 140
4 09/16/2018 15:10:12 22.63, 159.77 09/16/2018 15:11:28 23.16, 157.27 263.55 76
5 09/19/2018 03:32:00 22.68, 147.46 09/19/2018 03:28:30 25.37, 145.11 383.44 210
6 09/24/2018 15:59:29 22.59, 147.44 09/24/2018 16:02:15 23.24, 144.60 299.81 166




NCC Satellite Simultaneous Nadir Overpasses (SNOs) Prediction Service
